Starlink 31351

operational
NORAD ID: 58972 Int'l Des: 2024-031 Owner: SPXS Country: US Constellation: starlink
LEOCIRCULAR

About Starlink 31351

Description loading...

Live Position

Loading 3D Globe...

Upcoming Passes

Altitude History

Altitude vs Time

uPlot chart will show altitude changes over time

Two-Line Element Set

1 58972U 24031H 26035.17968501 -.00003690 00000-0 -11267-3 0 9994
2 58972 53.1582 92.2713 0001182 66.9661 293.1464 15.30162400111393
Epoch: Feb 4, 2026 • Age: 5 hours

Current Status

Altitude 477.3 km
Velocity 7.63 km/s
Sub-Earth Point 33.36°N, 36.85°W
Launch Date Feb 15, 2024
Age 1.9 years
Type internet

Technical Details

Classification Payload
Mass 730.00 kg
Dry Mass 700.00 kg
Total Mass 730.00 kg
Length 0.30 m
Diameter 4.10 m
Span 29.00 m
Shape Box + pan
Manufacturer SPXS
Bus Type Starlink V2M
Phase Status In Orbit
Owner/State SPXS/US

Large Constellations

Loading constellations...